Vertical_Velocity
0 3 -2 -5 -2 0 -0 1 1 -3 -4 6 -1 -1 -5 -4 2 -1 -5 -2 -4 -3 -6 3 2 1 -0 -0 -2 -1 -2 0 1 -1 -3 5 2 3 2 2 1 2 -1 2
-1 -2 -4 -0 1 2 1 2 -5 -7 -2 13 -1 -10 -5 -1 -7 -1 -2 -4 -2 -3 -6 -1 3 -2 -3 7 2 -2 -3 1 4 5 4 5 2 1 4 1 -1 -3 1 1
-2 -3 1 1 1 3 -1 1 -1 1 -2 -3 5 -14 -3 -11 4 2 0 -7 -1 -6 -9 -1 -1 -4 2 -4 4 -0 -1 -0 2 5 0 2 5 7 -0 -1 0 1 3 -0
-1 -7 0 1 -0 -0 5 -2 1 2 5 -2 -3 -11 -2 -3 -5 1 -3 1 -3 -5 -7 -2 1 -2 -5 2 1 1 1 2 4 3 2 1 -7 -6 -3 5 1 0 1 1
-13 -0 1 5 -14 -1 -5 -0 -1 0 1 7 -2 7 -11 2 -2 -3 -2 -2 -3 -6 -4 -4 -4 -4 2 4 -0 1 1 2 4 3 6 0 1 4 4 2 -0 2 1 -0
-6 -0 -0 -6 -2 -2 -2 3 1 1 2 9 -9 1 -16 -2 -8 -2 -2 -4 -6 -4 -3 -1 3 3 2 2 1 -2 1 -1 3 3 4 4 4 1 -2 -1 0 1 1 2
0 -4 0 1 2 4 7 2 1 6 8 -6 -0 9 -30 -2 -2 -1 -2 -5 -4 1 3 2 -3 -1 -0 -5 1 -2 1 -2 1 3 6 5 3 2 3 1 2 1 1 -1
0 -6 1 -1 -7 -9 -5 -5 -2 -1 -2 -4 0 -4 -21 -5 -4 -3 1 -7 1 2 0 0 1 -1 -2 -2 2 -2 2 -2 0 4 3 3 2 2 3 4 3 0 -0 -1
1 -4 -2 1 -1 -2 0 5 -17 3 0 5 -4 -9 -8 -0 -1 -1 -2 3 -2 -4 -2 -4 -2 1 0 -1 0 -1 0 1 1 2 2 3 2 2 1 0 1 -0 -0 -1
-3 0 -2 -1 7 -2 -5 -0 4 4 2 0 -4 -2 -12 -6 -3 -3 -2 -2 -3 -0 1 -3 0 5 6 5 3 4 5 3 -0 2 4 2 2 2 2 2 0 -0 0 0
-1 4 -1 3 1 -7 7 3 3 1 -1 -3 -0 -10 -4 -2 -1 2 -1 -2 0 -2 -2 -0 -0 1 5 4 6 2 3 0 0 3 3 3 2 1 1 0 -0 -0 -0 -1
-6 0 0 -13 -4 -4 -3 -4 -2 1 -2 -1 -4 -25 -1 -0 1 2 -0 -0 0 8 3 5 4 5 4 0 2 3 3 1 3 2 2 3 2 1 0 0 1 -0 -2 -1
-2 -1 0 -5 -0 5 3 -3 -1 1 -0 -5 1 -13 -1 -0 -2 -1 0 -1 1 1 8 2 1 3 2 4 0 2 5 2 1 1 2 2 2 -0 0 1 -1 -1 -1 -0
2 0 -3 -5 -12 -2 3 2 0 -0 6 -12 -13 -7 -9 -5 -1 -2 -2 -0 2 -1 -2 2 5 4 1 3 1 1 3 5 1 1 2 1 0 1 -0 -1 -0 -0 -0 -0
-2 1 5 -5 -2 3 -2 -2 0 3 -12 -0 -16 0 -7 0 -0 1 4 0 1 1 1 2 1 1 2 1 -1 2 5 1 1 0 1 -0 -0 -0 -0 0 0 -1 -1 -1
0 -5 2 -7 -3 3 3 0 0 -0 -1 3 3 -11 1 -0 -0 -6 -5 4 2 2 1 -1 2 1 3 -1 0 3 3 1 0 1 -0 0 1 1 0 -1 0 -0 -0 -0
1 1 1 -6 0 -0 3 -9 -3 -3 0 -6 -0 -28 -1 -5 -1 -3 -3 1 -1 1 -1 -5 -0 2 -1 -0 2 0 -1 -1 1 1 0 1 1 1 -0 1 0 -0 -0 -0
0 1 1 -2 -0 1 -9 -0 -4 -4 -3 0 3 -2 -2 -4 -3 -2 2 1 -0 -1 -2 -1 -2 -3 -1 2 2 1 1 1 0 0 1 1 1 0 1 0 0 0 0 1
0 1 -1 3 1 -3 -5 0 0 -5 -10 -4 -3 -2 -2 0 -2 -9 2 1 -2 -2 0 0 3 5 3 2 1 0 -0 1 1 1 0 1 1 0 1 0 -0 -0 1 -3
1 1 4 -1 2 1 -1 0 0 -2 -6 -2 -0 -2 -0 -0 -1 -1 8 13 10 9 1 -4 2 2 4 1 2 0 -1 0 -1 0 1 1 1 1 0 -1 0 -1 -2 -0
1 1 0 -1 -0 -8 -2 0 -0 -3 -8 -0 0 -3 -1 -2 -1 6 4 1 -4 -0 -3 2 4 2 3 0 1 0 1 2 1 0 1 1 0 -0 -0 -1 -1 0 -0 -1
-4 -2 -1 0 1 -6 -0 -4 -0 -8 -1 -0 -1 -0 -0 2 0 -0 -6 -2 -4 -1 3 4 0 2 1 2 1 2 2 1 2 2 0 -0 -0 -1 -1 0 -0 -1 -3 -0
-3 -7 -6 -9 -11 -3 -1 -0 0 2 3 0 -1 0 1 -1 -1 -2 -6 3 -0 9 1 1 2 0 3 4 6 -2 1 1 0 0 1 -1 -1 0 0 -1 -2 -0 -1 -3
-1 -1 -0 -3 -5 -2 0 1 -1 -0 1 0 -0 1 3 -5 2 -4 -0 7 2 3 1 1 2 1 -2 4 3 6 1 1 1 -1 -2 -1 1 -0 -2 -0 -1 -1 -1 -1
-6 -0 -2 -4 -3 -1 -2 2 0 1 -0 -1 0 -1 -1 -3 -4 1 3 2 2 0 0 3 1 1 -0 2 1 1 0 0 -2 -0 1 -1 -1 0 -2 -1 -0 -1 1 -4
-3 -6 -3 -6 -2 -1 0 1 0 0 -0 1 -1 -2 2 4 -1 1 -1 1 1 0 2 2 2 1 -1 0 -1 -1 -0 -0 0 -2 -0 0 -2 -0 1 -1 1 0 -1 1
Height
1476 1477 1474 1475 1478 1477 1479 1479 1478 1474 1473 1472 1466 1457 1453 1452 1449 1446 1443 1442 1442 1444 1447 1449 1450 1452 1452 1453 1455 1457 1460 1462 1465 1469 1474 1479 1483 1487 1490 1493 1496 1498 1500 1502
1478 1473 1471 1473 1475 1476 1477 1478 1476 1473 1473 1472 1464 1445 1447 1445 1439 1438 1437 1434 1435 1437 1439 1442 1444 1446 1447 1449 1449 1451 1455 1458 1461 1465 1469 1474 1479 1484 1487 1490 1493 1496 1498 1500
1473 1466 1465 1470 1474 1475 1475 1477 1480 1478 1473 1467 1465 1433 1433 1424 1422 1422 1423 1424 1426 1429 1432 1434 1437 1440 1442 1444 1445 1447 1450 1455 1458 1462 1467 1472 1477 1480 1484 1488 1491 1493 1496 1498
1469 1465 1468 1470 1470 1474 1474 1471 1472 1474 1478 1475 1463 1441 1422 1421 1416 1415 1414 1415 1415 1418 1423 1426 1430 1433 1436 1438 1442 1444 1447 1451 1455 1459 1463 1467 1472 1476 1481 1485 1488 1491 1493 1495
1459 1462 1465 1466 1463 1469 1467 1466 1469 1470 1471 1471 1462 1467 1421 1416 1414 1411 1407 1405 1405 1406 1411 1416 1421 1426 1430 1433 1436 1441 1443 1448 1452 1455 1461 1466 1470 1475 1479 1482 1486 1488 1491 1493
1455 1458 1459 1459 1458 1462 1463 1466 1466 1465 1465 1455 1446 1461 1403 1412 1406 1402 1396 1396 1397 1399 1400 1406 1412 1418 1423 1428 1432 1436 1440 1444 1449 1454 1459 1464 1468 1472 1477 1480 1483 1486 1489 1490
1454 1451 1455 1455 1459 1459 1463 1466 1462 1459 1454 1443 1437 1444 1407 1399 1399 1397 1393 1390 1389 1391 1392 1397 1403 1409 1416 1422 1427 1432 1436 1441 1447 1452 1457 1462 1467 1471 1475 1478 1481 1484 1486 1488
1455 1453 1448 1449 1447 1450 1453 1457 1454 1445 1458 1451 1433 1423 1401 1392 1388 1386 1385 1385 1384 1386 1388 1392 1397 1404 1410 1416 1422 1428 1433 1439 1445 1451 1456 1460 1465 1469 1474 1478 1480 1482 1484 1486
1448 1449 1442 1441 1443 1445 1451 1449 1443 1445 1443 1436 1427 1411 1394 1386 1384 1382 1376 1374 1376 1381 1384 1388 1393 1398 1404 1411 1417 1423 1431 1437 1444 1449 1454 1458 1463 1468 1472 1476 1478 1481 1483 1484
1446 1445 1438 1438 1443 1440 1441 1443 1447 1445 1436 1428 1426 1418 1401 1389 1385 1381 1375 1371 1370 1373 1377 1383 1389 1394 1400 1408 1414 1422 1431 1436 1442 1448 1453 1457 1461 1466 1471 1474 1477 1479 1481 1482
1444 1446 1442 1439 1433 1428 1434 1435 1437 1435 1431 1433 1426 1411 1386 1386 1386 1381 1374 1367 1364 1365 1368 1374 1380 1390 1397 1406 1413 1420 1428 1434 1440 1446 1451 1456 1460 1465 1469 1472 1475 1477 1478 1479
1436 1441 1435 1429 1419 1421 1422 1422 1423 1424 1433 1425 1427 1393 1382 1381 1379 1379 1375 1366 1362 1362 1366 1371 1376 1384 1394 1404 1412 1419 1425 1432 1439 1446 1451 1455 1459 1463 1467 1470 1473 1475 1476 1476
1431 1434 1429 1421 1421 1418 1416 1410 1409 1412 1415 1417 1420 1381 1370 1375 1377 1379 1376 1372 1368 1367 1368 1369 1377 1385 1393 1402 1410 1418 1425 1431 1438 1445 1450 1454 1458 1463 1466 1469 1471 1472 1473 1473
1427 1425 1422 1412 1400 1407 1402 1402 1404 1409 1410 1392 1386 1385 1376 1380 1381 1381 1380 1377 1373 1371 1373 1377 1381 1385 1394 1403 1410 1418 1424 1430 1437 1444 1450 1454 1458 1462 1465 1467 1469 1470 1470 1470
1424 1416 1411 1400 1394 1399 1392 1390 1395 1397 1391 1398 1381 1383 1380 1383 1383 1379 1378 1378 1375 1374 1375 1379 1382 1388 1395 1403 1412 1419 1425 1431 1437 1444 1450 1454 1457 1460 1463 1465 1466 1467 1467 1467
1419 1410 1406 1392 1385 1378 1378 1380 1384 1386 1390 1384 1380 1376 1375 1380 1381 1380 1378 1375 1374 1374 1376 1381 1385 1392 1396 1404 1412 1419 1424 1431 1439 1444 1449 1453 1456 1459 1461 1463 1464 1464 1464 1464
1414 1413 1402 1382 1381 1376 1368 1372 1373 1378 1378 1377 1385 1358 1373 1372 1377 1380 1373 1369 1369 1370 1374 1382 1387 1392 1398 1406 1412 1419 1425 1433 1439 1444 1449 1452 1455 1457 1459 1461 1461 1462 1462 1462
1405 1408 1403 1384 1375 1362 1360 1356 1358 1364 1362 1368 1368 1364 1366 1367 1370 1370 1367 1365 1367 1371 1376 1382 1388 1394 1402 1408 1415 1421 1427 1433 1439 1443 1448 1451 1453 1456 1458 1459 1459 1460 1460 1459
1397 1401 1395 1383 1377 1368 1352 1357 1356 1362 1357 1356 1358 1358 1358 1365 1363 1357 1358 1361 1365 1369 1376 1383 1391 1396 1402 1409 1415 1422 1428 1434 1439 1443 1447 1450 1452 1455 1456 1457 1458 1458 1457 1456
1398 1399 1399 1391 1385 1374 1360 1359 1355 1358 1356 1347 1350 1352 1358 1364 1366 1359 1355 1360 1364 1368 1375 1386 1393 1398 1404 1410 1416 1423 1428 1434 1439 1443 1446 1449 1451 1453 1455 1456 1457 1456 1454 1453
1395 1395 1391 1388 1386 1378 1364 1361 1360 1364 1362 1351 1348 1349 1359 1362 1363 1361 1362 1364 1368 1373 1380 1389 1394 1398 1404 1411 1418 1424 1430 1435 1439 1443 1445 1448 1451 1453 1454 1455 1454 1453 1452 1450
1390 1387 1385 1384 1387 1389 1363 1364 1364 1360 1354 1353 1350 1351 1355 1359 1363 1364 1367 1371 1376 1381 1383 1388 1393 1400 1407 1413 1419 1425 1431 1435 1439 1442 1445 1448 1451 1452 1453 1453 1452 1451 1449 1446
1386 1378 1382 1381 1379 1367 1365 1362 1357 1356 1354 1352 1350 1350 1352 1358 1363 1368 1375 1377 1384 1383 1385 1391 1397 1403 1410 1417 1423 1426 1431 1435 1439 1442 1445 1448 1450 1451 1451 1451 1449 1448 1445 1442
1377 1374 1376 1373 1365 1362 1362 1362 1360 1357 1354 1351 1350 1352 1355 1359 1366 1373 1380 1380 1382 1386 1390 1395 1401 1407 1413 1420 1425 1430 1432 1437 1440 1443 1445 1447 1449 1450 1449 1448 1447 1444 1442 1439
1374 1374 1373 1372 1363 1360 1357 1359 1359 1358 1357 1356 1356 1358 1361 1364 1372 1378 1379 1382 1386 1391 1396 1402 1406 1411 1416 1422 1427 1431 1435 1438 1441 1443 1445 1447 1448 1448 1447 1446 1444 1442 1439 1435
1367 1365 1367 1364 1358 1358 1358 1358 1359 1359 1360 1361 1361 1366 1371 1374 1375 1380 1384 1389 1393 1397 1402 1407 1411 1415 1420 1425 1429 1433 1436 1439 1442 1443 1445 1446 1446 1446 1445 1444 1442 1439 1436 1433